Year,Month,Day,Hour,Minute,Value (Times are PST for temperature in C)
2009,05,29,00,00,12.70
2009,05,29,00,01,12.70
2009,05,29,00,02,12.70
2009,05,29,00,03,12.70
2009,05,29,00,04,12.70
2009,05,29,00,05,12.60
2009,05,29,00,06,12.60
2009,05,29,00,07,12.60
2009,05,29,00,08,12.60
2009,05,29,00,09,12.60
2009,05,29,00,10,12.50
2009,05,29,00,11,12.50
2009,05,29,00,12,12.50
2009,05,29,00,13,12.50
2009,05,29,00,14,12.50
2009,05,29,00,15,12.50
2009,05,29,00,16,12.40
2009,05,29,00,17,12.40
2009,05,29,00,18,12.40
2009,05,29,00,19,12.40
2009,05,29,00,20,12.40
2009,05,29,00,21,12.40
2009,05,29,00,22,12.40
2009,05,29,00,23,12.40
2009,05,29,00,24,12.30
2009,05,29,00,25,12.30
2009,05,29,00,26,12.30
2009,05,29,00,27,12.30
2009,05,29,00,28,12.20
2009,05,29,00,29,12.20
2009,05,29,00,30,12.20
2009,05,29,00,31,12.20
2009,05,29,00,32,12.20
2009,05,29,00,33,12.20
2009,05,29,00,34,12.10
2009,05,29,00,35,12.10
2009,05,29,00,36,12.10
2009,05,29,00,37,12.10
2009,05,29,00,38,12.10
2009,05,29,00,39,12.10
2009,05,29,00,40,12.20
2009,05,29,00,41,12.20
2009,05,29,00,42,12.20
2009,05,29,00,43,12.20
2009,05,29,00,44,12.20
2009,05,29,00,45,12.20
2009,05,29,00,46,12.20
2009,05,29,00,47,12.20
2009,05,29,00,48,12.20
2009,05,29,00,49,12.20
2009,05,29,00,50,12.30
2009,05,29,00,51,12.20
2009,05,29,00,52,12.20
2009,05,29,00,53,12.30
2009,05,29,00,54,12.30
2009,05,29,00,55,12.30
2009,05,29,00,56,12.30
2009,05,29,00,57,12.30
2009,05,29,00,58,12.30
2009,05,29,00,59,12.30
2009,05,29,01,00,12.30
2009,05,29,01,01,12.30
2009,05,29,01,02,12.30
2009,05,29,01,03,12.30
2009,05,29,01,04,12.20
2009,05,29,01,05,12.20
2009,05,29,01,06,12.20
2009,05,29,01,07,12.20
2009,05,29,01,08,12.20
2009,05,29,01,09,12.20
2009,05,29,01,10,12.10
2009,05,29,01,11,12.10
2009,05,29,01,12,12.10
2009,05,29,01,13,12.10
2009,05,29,01,14,12.10
2009,05,29,01,15,12.10
2009,05,29,01,16,12.10
2009,05,29,01,17,12.10
2009,05,29,01,18,12.10
2009,05,29,01,19,12.10
2009,05,29,01,20,12.10
2009,05,29,01,21,12.10
2009,05,29,01,22,12.10
2009,05,29,01,23,12.10
2009,05,29,01,24,12.10
2009,05,29,01,25,12.10
2009,05,29,01,26,12.10
2009,05,29,01,27,12.00
2009,05,29,01,28,12.00
2009,05,29,01,29,12.00
2009,05,29,01,30,12.00
2009,05,29,01,31,12.00
2009,05,29,01,32,12.00
2009,05,29,01,33,12.00
2009,05,29,01,34,12.00
2009,05,29,01,35,11.90
2009,05,29,01,36,11.90
2009,05,29,01,37,11.90
2009,05,29,01,38,11.90
2009,05,29,01,39,11.80
2009,05,29,01,40,11.80
2009,05,29,01,41,11.80
2009,05,29,01,42,11.80
2009,05,29,01,43,11.70
2009,05,29,01,44,11.70
2009,05,29,01,45,11.70
2009,05,29,01,46,11.70
2009,05,29,01,47,11.60
2009,05,29,01,48,11.60
2009,05,29,01,49,11.60
2009,05,29,01,50,11.60
2009,05,29,01,51,11.60
2009,05,29,01,52,11.60
2009,05,29,01,53,11.60
2009,05,29,01,54,11.50
2009,05,29,01,55,11.50
2009,05,29,01,56,11.50
2009,05,29,01,57,11.50
2009,05,29,01,58,11.50
2009,05,29,01,59,11.50
2009,05,29,02,00,11.40
2009,05,29,02,01,11.50
2009,05,29,02,02,11.40
2009,05,29,02,03,11.40
2009,05,29,02,04,11.40
2009,05,29,02,05,11.40
2009,05,29,02,06,11.40
2009,05,29,02,07,11.40
2009,05,29,02,08,11.40
2009,05,29,02,09,11.40
2009,05,29,02,10,11.40
2009,05,29,02,11,11.40
2009,05,29,02,12,11.40
2009,05,29,02,13,11.40
2009,05,29,02,14,11.40
2009,05,29,02,15,11.40
2009,05,29,02,16,11.40
2009,05,29,02,17,11.40
2009,05,29,02,18,11.40
2009,05,29,02,19,11.40
2009,05,29,02,20,11.40
2009,05,29,02,21,11.40
2009,05,29,02,22,11.40
2009,05,29,02,23,11.40
2009,05,29,02,24,11.40
2009,05,29,02,25,11.40
2009,05,29,02,26,11.40
2009,05,29,02,27,11.40
2009,05,29,02,28,11.40
2009,05,29,02,29,11.40
2009,05,29,02,30,11.40
2009,05,29,02,31,11.40
2009,05,29,02,32,11.40
2009,05,29,02,33,11.40
2009,05,29,02,34,11.30
2009,05,29,02,35,11.30
2009,05,29,02,36,11.30
2009,05,29,02,37,11.30
2009,05,29,02,38,11.30
2009,05,29,02,39,11.30
2009,05,29,02,40,11.30
2009,05,29,02,41,11.30
2009,05,29,02,42,11.30
2009,05,29,02,43,11.30
2009,05,29,02,44,11.30
2009,05,29,02,45,11.30
2009,05,29,02,46,11.30
2009,05,29,02,47,11.30
2009,05,29,02,48,11.30
2009,05,29,02,49,11.30
2009,05,29,02,50,11.30
2009,05,29,02,51,11.30
2009,05,29,02,52,11.20
2009,05,29,02,53,11.20
2009,05,29,02,54,11.20
2009,05,29,02,55,11.20
2009,05,29,02,56,11.20
2009,05,29,02,57,11.20
2009,05,29,02,58,11.20
2009,05,29,02,59,11.10
2009,05,29,03,00,11.10
2009,05,29,03,01,11.10
2009,05,29,03,02,11.10
2009,05,29,03,03,11.10
2009,05,29,03,04,11.10
2009,05,29,03,05,11.10
2009,05,29,03,06,11.10
2009,05,29,03,07,11.10
2009,05,29,03,08,11.10
2009,05,29,03,09,11.10
2009,05,29,03,10,11.10
2009,05,29,03,11,11.10
2009,05,29,03,12,11.10
2009,05,29,03,13,11.10
2009,05,29,03,14,11.10
2009,05,29,03,15,11.10
2009,05,29,03,16,11.10
2009,05,29,03,17,11.10
2009,05,29,03,18,11.10
2009,05,29,03,19,11.10
2009,05,29,03,20,11.10
2009,05,29,03,21,11.10
2009,05,29,03,22,11.10
2009,05,29,03,23,11.10
2009,05,29,03,24,11.00
2009,05,29,03,25,11.00
2009,05,29,03,26,11.10
2009,05,29,03,27,11.00
2009,05,29,03,28,11.00
2009,05,29,03,29,11.00
2009,05,29,03,30,11.00
2009,05,29,03,31,11.00
2009,05,29,03,32,10.90
2009,05,29,03,33,10.90
2009,05,29,03,34,10.90
2009,05,29,03,35,10.90
2009,05,29,03,36,10.90
2009,05,29,03,37,10.90
2009,05,29,03,38,10.80
2009,05,29,03,39,10.80
2009,05,29,03,40,10.80
2009,05,29,03,41,10.80
2009,05,29,03,42,10.80
2009,05,29,03,43,10.80
2009,05,29,03,44,10.80
2009,05,29,03,45,10.80
2009,05,29,03,46,10.90
2009,05,29,03,47,10.90
2009,05,29,03,48,10.90
2009,05,29,03,49,10.90
2009,05,29,03,50,10.90
2009,05,29,03,51,10.90
2009,05,29,03,52,10.90
2009,05,29,03,53,10.80
2009,05,29,03,54,10.90
2009,05,29,03,55,10.80
2009,05,29,03,56,10.80
2009,05,29,03,57,10.90
2009,05,29,03,58,10.90
2009,05,29,03,59,10.90
2009,05,29,04,00,10.90
2009,05,29,04,01,10.90
2009,05,29,04,02,10.90
2009,05,29,04,03,10.90
2009,05,29,04,04,10.90
2009,05,29,04,05,10.80
2009,05,29,04,06,10.80
2009,05,29,04,07,10.80
2009,05,29,04,08,10.80
2009,05,29,04,09,10.70
2009,05,29,04,10,10.70
2009,05,29,04,11,10.70
2009,05,29,04,12,10.60
2009,05,29,04,13,10.60
2009,05,29,04,14,10.60
2009,05,29,04,15,10.60
2009,05,29,04,16,10.60
2009,05,29,04,17,10.60
2009,05,29,04,18,10.60
2009,05,29,04,19,10.60
2009,05,29,04,20,10.60
2009,05,29,04,21,10.60
2009,05,29,04,22,10.60
2009,05,29,04,23,10.60
2009,05,29,04,24,10.60
2009,05,29,04,25,10.60
2009,05,29,04,26,10.60
2009,05,29,04,27,10.60
2009,05,29,04,28,10.60
2009,05,29,04,29,10.50
2009,05,29,04,30,10.50
2009,05,29,04,31,10.50
2009,05,29,04,32,10.50
2009,05,29,04,33,10.50
2009,05,29,04,34,10.50
2009,05,29,04,35,10.50
2009,05,29,04,36,10.50
2009,05,29,04,37,10.50
2009,05,29,04,38,10.40
2009,05,29,04,39,10.40
2009,05,29,04,40,10.40
2009,05,29,04,41,10.40
2009,05,29,04,42,10.40
2009,05,29,04,43,10.40
2009,05,29,04,44,10.40
2009,05,29,04,45,10.40
2009,05,29,04,46,10.40
2009,05,29,04,47,10.40
2009,05,29,04,48,10.40
2009,05,29,04,49,10.40
2009,05,29,04,50,10.40
2009,05,29,04,51,10.40
2009,05,29,04,52,10.40
2009,05,29,04,53,10.40
2009,05,29,04,54,10.40
2009,05,29,04,55,10.40
2009,05,29,04,56,10.40
2009,05,29,04,57,10.40
2009,05,29,04,58,10.40
2009,05,29,04,59,10.40
2009,05,29,05,00,10.30
2009,05,29,05,01,10.30
2009,05,29,05,02,10.30
2009,05,29,05,03,10.30
2009,05,29,05,04,10.30
2009,05,29,05,05,10.30
2009,05,29,05,06,10.30
2009,05,29,05,07,10.30
2009,05,29,05,08,10.30
2009,05,29,05,09,10.20
2009,05,29,05,10,10.20
2009,05,29,05,11,10.20
2009,05,29,05,12,10.20
2009,05,29,05,13,10.20
2009,05,29,05,14,10.20
2009,05,29,05,15,10.20
2009,05,29,05,16,10.20
2009,05,29,05,17,10.20
2009,05,29,05,18,10.20
2009,05,29,05,19,10.20
2009,05,29,05,20,10.20
2009,05,29,05,21,10.20
2009,05,29,05,22,10.20
2009,05,29,05,23,10.20
2009,05,29,05,24,10.20
2009,05,29,05,25,10.20
2009,05,29,05,26,10.20
2009,05,29,05,27,10.20
2009,05,29,05,28,10.20
2009,05,29,05,29,10.20
2009,05,29,05,30,10.20
2009,05,29,05,31,10.20
2009,05,29,05,32,10.20
2009,05,29,05,33,10.10
2009,05,29,05,34,10.10
2009,05,29,05,35,10.10
2009,05,29,05,36,10.10
2009,05,29,05,37,10.10
2009,05,29,05,38,10.10
2009,05,29,05,39,10.10
2009,05,29,05,40,10.10
2009,05,29,05,41,10.10
2009,05,29,05,42,10.10
2009,05,29,05,43,10.10
2009,05,29,05,44,10.00
2009,05,29,05,45,10.00
2009,05,29,05,46,10.00
2009,05,29,05,47,10.00
2009,05,29,05,48,10.00
2009,05,29,05,49,10.10
2009,05,29,05,50,10.10
2009,05,29,05,51,10.10
2009,05,29,05,52,10.10
2009,05,29,05,53,10.10
2009,05,29,05,54,10.10
2009,05,29,05,55,10.10
2009,05,29,05,56,10.10
2009,05,29,05,57,10.10
2009,05,29,05,58,10.10
2009,05,29,05,59,10.10
2009,05,29,06,00,10.10
2009,05,29,06,01,10.10
2009,05,29,06,02,10.10
2009,05,29,06,03,10.10
2009,05,29,06,04,10.10
2009,05,29,06,05,10.10
2009,05,29,06,06,10.10
2009,05,29,06,07,10.10
2009,05,29,06,08,10.10
2009,05,29,06,09,10.10
2009,05,29,06,10,10.20
2009,05,29,06,11,10.20
2009,05,29,06,12,10.20
2009,05,29,06,13,10.20
2009,05,29,06,14,10.20
2009,05,29,06,15,10.20
2009,05,29,06,16,10.20
2009,05,29,06,17,10.20
2009,05,29,06,18,10.20
2009,05,29,06,19,10.30
2009,05,29,06,20,10.30
2009,05,29,06,21,10.30
2009,05,29,06,22,10.30
2009,05,29,06,23,10.30
2009,05,29,06,24,10.30
2009,05,29,06,25,10.30
2009,05,29,06,26,10.30
2009,05,29,06,27,10.30
2009,05,29,06,28,10.30
2009,05,29,06,29,10.30
2009,05,29,06,30,10.40
2009,05,29,06,31,10.40
2009,05,29,06,32,10.40
2009,05,29,06,33,10.40
2009,05,29,06,34,10.40
2009,05,29,06,35,10.40
2009,05,29,06,36,10.40
2009,05,29,06,37,10.40
2009,05,29,06,38,10.50
2009,05,29,06,39,10.50
2009,05,29,06,40,10.60
2009,05,29,06,41,10.60
2009,05,29,06,42,10.60
2009,05,29,06,43,10.60
2009,05,29,06,44,10.60
2009,05,29,06,45,10.60
2009,05,29,06,46,10.70
2009,05,29,06,47,10.70
2009,05,29,06,48,10.70
2009,05,29,06,49,10.80
2009,05,29,06,50,10.80
2009,05,29,06,51,10.90
2009,05,29,06,52,10.90
2009,05,29,06,53,11.00
2009,05,29,06,54,11.10
2009,05,29,06,55,11.20
2009,05,29,06,56,11.30
2009,05,29,06,57,11.50
2009,05,29,06,58,11.60
2009,05,29,06,59,11.80
2009,05,29,07,00,11.90
2009,05,29,07,01,12.00
2009,05,29,07,02,12.20
2009,05,29,07,03,12.30
2009,05,29,07,04,12.40
2009,05,29,07,05,12.60
2009,05,29,07,06,12.70
2009,05,29,07,07,12.80
2009,05,29,07,08,12.90
2009,05,29,07,09,13.00
2009,05,29,07,10,13.10
2009,05,29,07,11,13.20
2009,05,29,07,12,13.30
2009,05,29,07,13,13.40
2009,05,29,07,14,13.50
2009,05,29,07,15,13.60
2009,05,29,07,16,13.70
2009,05,29,07,17,13.70
2009,05,29,07,18,13.80
2009,05,29,07,19,13.90
2009,05,29,07,20,14.00
2009,05,29,07,21,14.00
2009,05,29,07,22,14.10
2009,05,29,07,23,14.20
2009,05,29,07,24,14.30
2009,05,29,07,25,14.40
2009,05,29,07,26,14.50
2009,05,29,07,27,14.60
2009,05,29,07,28,14.70
2009,05,29,07,29,14.80
2009,05,29,07,30,14.80
2009,05,29,07,31,14.90
2009,05,29,07,32,15.00
2009,05,29,07,33,15.00
2009,05,29,07,34,15.00
2009,05,29,07,35,15.00
2009,05,29,07,36,15.10
2009,05,29,07,37,15.20
2009,05,29,07,38,15.30
2009,05,29,07,39,15.30
2009,05,29,07,40,15.40
2009,05,29,07,41,15.40
2009,05,29,07,42,15.50
2009,05,29,07,43,15.60
2009,05,29,07,44,15.60
2009,05,29,07,45,15.70
2009,05,29,07,46,15.80
2009,05,29,07,47,15.80
2009,05,29,07,48,15.90
2009,05,29,07,49,16.00
2009,05,29,07,50,16.00
2009,05,29,07,51,16.10
2009,05,29,07,52,16.20
2009,05,29,07,53,16.30
2009,05,29,07,54,16.30
2009,05,29,07,55,16.30
2009,05,29,07,56,16.40
2009,05,29,07,57,16.40
2009,05,29,07,58,16.40
2009,05,29,07,59,16.40
2009,05,29,08,00,16.40
2009,05,29,08,01,16.40
2009,05,29,08,02,16.40
2009,05,29,08,03,16.40
2009,05,29,08,04,16.50
2009,05,29,08,05,16.50
2009,05,29,08,06,16.60
2009,05,29,08,07,16.60
2009,05,29,08,08,16.60
2009,05,29,08,09,16.70
2009,05,29,08,10,16.70
2009,05,29,08,11,16.70
2009,05,29,08,12,16.80
2009,05,29,08,13,16.80
2009,05,29,08,14,16.80
2009,05,29,08,15,16.90
2009,05,29,08,16,17.00
2009,05,29,08,17,17.00
2009,05,29,08,18,17.10
2009,05,29,08,19,17.10
2009,05,29,08,20,17.20
2009,05,29,08,21,17.20
2009,05,29,08,22,17.20
2009,05,29,08,23,17.20
2009,05,29,08,24,17.20
2009,05,29,08,25,17.20
2009,05,29,08,26,17.20
2009,05,29,08,27,17.20
2009,05,29,08,28,17.30
2009,05,29,08,29,17.30
2009,05,29,08,30,17.30
2009,05,29,08,31,17.30
2009,05,29,08,32,17.40
2009,05,29,08,33,17.40
2009,05,29,08,34,17.50
2009,05,29,08,35,17.50
2009,05,29,08,36,17.50
2009,05,29,08,37,17.60
2009,05,29,08,38,17.60
2009,05,29,08,39,17.70
2009,05,29,08,40,17.80
2009,05,29,08,41,17.90
2009,05,29,08,42,17.90
2009,05,29,08,43,18.00
2009,05,29,08,44,18.10
2009,05,29,08,45,18.20
2009,05,29,08,46,18.30
2009,05,29,08,47,18.40
2009,05,29,08,48,18.50
2009,05,29,08,49,18.70
2009,05,29,08,50,18.80
2009,05,29,08,51,18.90
2009,05,29,08,52,19.00
2009,05,29,08,53,19.20
2009,05,29,08,54,19.30
2009,05,29,08,55,19.40
2009,05,29,08,56,19.40
2009,05,29,08,57,19.50
2009,05,29,08,58,19.60
2009,05,29,08,59,19.60
2009,05,29,09,00,19.60
2009,05,29,09,01,19.60
2009,05,29,09,02,19.70
2009,05,29,09,03,19.70
2009,05,29,09,04,19.80
2009,05,29,09,05,19.90
2009,05,29,09,06,19.90
2009,05,29,09,07,20.00
2009,05,29,09,08,20.10
2009,05,29,09,09,20.20
2009,05,29,09,10,20.20
2009,05,29,09,11,20.10
2009,05,29,09,12,20.00
2009,05,29,09,13,19.90
2009,05,29,09,14,19.80
2009,05,29,09,15,19.70
2009,05,29,09,16,19.70
2009,05,29,09,17,19.80
2009,05,29,09,18,19.80
2009,05,29,09,19,19.90
2009,05,29,09,20,19.90
2009,05,29,09,21,20.00
2009,05,29,09,22,20.00
2009,05,29,09,23,20.10
2009,05,29,09,24,20.20
2009,05,29,09,25,20.20
2009,05,29,09,26,20.30
2009,05,29,09,27,20.30
2009,05,29,09,28,20.30
2009,05,29,09,29,20.30
2009,05,29,09,30,20.30
2009,05,29,09,31,20.20
2009,05,29,09,32,20.20
2009,05,29,09,33,20.10
2009,05,29,09,34,20.00
2009,05,29,09,35,19.90
2009,05,29,09,36,19.90
2009,05,29,09,37,19.90
2009,05,29,09,38,19.80
2009,05,29,09,39,19.80
2009,05,29,09,40,19.80
2009,05,29,09,41,19.80
2009,05,29,09,42,19.80
2009,05,29,09,43,19.80
2009,05,29,09,44,19.90
2009,05,29,09,45,19.90
2009,05,29,09,46,20.00
2009,05,29,09,47,20.10
2009,05,29,09,48,20.10
2009,05,29,09,49,20.20
2009,05,29,09,50,20.30
2009,05,29,09,51,20.40
2009,05,29,09,52,20.50
2009,05,29,09,53,20.50
2009,05,29,09,54,20.60
2009,05,29,09,55,20.60
2009,05,29,09,56,20.60
2009,05,29,09,57,20.70
2009,05,29,09,58,20.70
2009,05,29,09,59,20.80
2009,05,29,10,00,20.90
2009,05,29,10,01,21.00
2009,05,29,10,02,21.00
2009,05,29,10,03,21.10
2009,05,29,10,04,21.10
2009,05,29,10,05,21.20
2009,05,29,10,06,21.20
2009,05,29,10,07,21.30
2009,05,29,10,08,21.40
2009,05,29,10,09,21.40
2009,05,29,10,10,21.50
2009,05,29,10,11,21.60
2009,05,29,10,12,21.70
2009,05,29,10,13,21.80
2009,05,29,10,14,21.80
2009,05,29,10,15,21.90
2009,05,29,10,16,22.10
2009,05,29,10,17,22.20
2009,05,29,10,18,22.30
2009,05,29,10,19,22.40
2009,05,29,10,20,22.50
2009,05,29,10,21,22.60
2009,05,29,10,22,22.70
2009,05,29,10,23,22.80
2009,05,29,10,24,22.80
2009,05,29,10,25,22.80
2009,05,29,10,26,22.70
2009,05,29,10,27,22.60
2009,05,29,10,28,22.60
2009,05,29,10,29,22.60
2009,05,29,10,30,22.60
2009,05,29,10,31,22.60
2009,05,29,10,32,22.60
2009,05,29,10,33,22.60
2009,05,29,10,34,22.60
2009,05,29,10,35,22.60
2009,05,29,10,36,22.60
2009,05,29,10,37,22.60
2009,05,29,10,38,22.70
2009,05,29,10,39,22.70
2009,05,29,10,40,22.70
2009,05,29,10,41,22.70
2009,05,29,10,42,22.60
2009,05,29,10,43,22.60
2009,05,29,10,44,22.60
2009,05,29,10,45,22.60
2009,05,29,10,46,22.70
2009,05,29,10,47,22.80
2009,05,29,10,48,22.80
2009,05,29,10,49,22.90
2009,05,29,10,50,22.90
2009,05,29,10,51,23.00
2009,05,29,10,52,23.00
2009,05,29,10,53,23.10
2009,05,29,10,54,23.10
2009,05,29,10,55,23.10
2009,05,29,10,56,23.10
2009,05,29,10,57,23.10
2009,05,29,10,58,23.10
2009,05,29,10,59,23.10
2009,05,29,11,00,23.20
2009,05,29,11,01,23.20
2009,05,29,11,02,23.20
2009,05,29,11,03,23.20
2009,05,29,11,04,23.20
2009,05,29,11,05,23.10
2009,05,29,11,06,23.10
2009,05,29,11,07,23.10
2009,05,29,11,08,23.20
2009,05,29,11,09,23.20
2009,05,29,11,10,23.20
2009,05,29,11,11,23.20
2009,05,29,11,12,23.20
2009,05,29,11,13,23.10
2009,05,29,11,14,23.00
2009,05,29,11,15,22.90
2009,05,29,11,16,22.80
2009,05,29,11,17,22.80
2009,05,29,11,18,22.80
2009,05,29,11,19,22.80
2009,05,29,11,20,22.80
2009,05,29,11,21,22.80
2009,05,29,11,22,22.80
2009,05,29,11,23,22.80
2009,05,29,11,24,22.80
2009,05,29,11,25,22.90
2009,05,29,11,26,23.00
2009,05,29,11,27,23.10
2009,05,29,11,28,23.10
2009,05,29,11,29,23.10
2009,05,29,11,30,23.10
2009,05,29,11,31,23.10
2009,05,29,11,32,23.20
2009,05,29,11,33,23.30
2009,05,29,11,34,23.30
2009,05,29,11,35,23.40
2009,05,29,11,36,23.40
2009,05,29,11,37,23.40
2009,05,29,11,38,23.50
2009,05,29,11,39,23.50
2009,05,29,11,40,23.60
2009,05,29,11,41,23.70
2009,05,29,11,42,23.70
2009,05,29,11,43,23.80
2009,05,29,11,44,23.90
2009,05,29,11,45,23.90
2009,05,29,11,46,24.00
2009,05,29,11,47,24.10
2009,05,29,11,48,24.00
2009,05,29,11,49,24.10
2009,05,29,11,50,24.10
2009,05,29,11,51,24.20
2009,05,29,11,52,24.20
2009,05,29,11,53,24.20
2009,05,29,11,54,24.20
2009,05,29,11,55,24.20
2009,05,29,11,56,24.30
2009,05,29,11,57,24.30
2009,05,29,11,58,24.40
2009,05,29,11,59,24.40
2009,05,29,12,00,24.40
2009,05,29,12,01,24.50
2009,05,29,12,02,24.50
2009,05,29,12,03,24.50
2009,05,29,12,04,24.60
2009,05,29,12,05,24.50
2009,05,29,12,06,24.40
2009,05,29,12,07,24.30
2009,05,29,12,08,24.20
2009,05,29,12,09,24.10
2009,05,29,12,10,24.10
2009,05,29,12,11,24.10
2009,05,29,12,12,24.10
2009,05,29,12,13,24.10
2009,05,29,12,14,24.00
2009,05,29,12,15,24.10
2009,05,29,12,16,24.10
2009,05,29,12,17,24.10
2009,05,29,12,18,24.10
2009,05,29,12,19,24.10
2009,05,29,12,20,24.20
2009,05,29,12,21,24.20
2009,05,29,12,22,24.20
2009,05,29,12,23,24.30
2009,05,29,12,24,24.30
2009,05,29,12,25,24.30
2009,05,29,12,26,24.40
2009,05,29,12,27,24.40
2009,05,29,12,28,24.50
2009,05,29,12,29,24.50
2009,05,29,12,30,24.40
2009,05,29,12,31,24.40
2009,05,29,12,32,24.40
2009,05,29,12,33,24.40
2009,05,29,12,34,24.40
2009,05,29,12,35,24.40
2009,05,29,12,36,24.40
2009,05,29,12,37,24.40
2009,05,29,12,38,24.40
2009,05,29,12,39,24.40
2009,05,29,12,40,24.50
2009,05,29,12,41,24.50
2009,05,29,12,42,24.50
2009,05,29,12,43,24.60
2009,05,29,12,44,24.60
2009,05,29,12,45,24.70
2009,05,29,12,46,24.60
2009,05,29,12,47,24.50
2009,05,29,12,48,24.40
2009,05,29,12,49,24.20
2009,05,29,12,50,24.20
2009,05,29,12,51,24.20
2009,05,29,12,52,24.20
2009,05,29,12,53,24.20
2009,05,29,12,54,24.30
2009,05,29,12,55,24.30
2009,05,29,12,56,24.40
2009,05,29,12,57,24.50
2009,05,29,12,58,24.60
2009,05,29,12,59,24.70
2009,05,29,13,00,24.70
2009,05,29,13,01,24.80
2009,05,29,13,02,24.80
2009,05,29,13,03,24.80
2009,05,29,13,04,24.90
2009,05,29,13,05,24.90
2009,05,29,13,06,24.90
2009,05,29,13,07,24.80
2009,05,29,13,08,24.80
2009,05,29,13,09,24.80
2009,05,29,13,10,24.70
2009,05,29,13,11,24.60
2009,05,29,13,12,24.60
2009,05,29,13,13,24.70
2009,05,29,13,14,24.70
2009,05,29,13,15,24.70
2009,05,29,13,16,24.70
2009,05,29,13,17,24.60
2009,05,29,13,18,24.50
2009,05,29,13,19,24.40
2009,05,29,13,20,24.40
2009,05,29,13,21,24.30
2009,05,29,13,22,24.20
2009,05,29,13,23,24.20
2009,05,29,13,24,24.20
2009,05,29,13,25,24.20
2009,05,29,13,26,24.30
2009,05,29,13,27,24.30
2009,05,29,13,28,24.30
2009,05,29,13,29,24.30
2009,05,29,13,30,24.20
2009,05,29,13,31,24.20
2009,05,29,13,32,24.20
2009,05,29,13,33,24.20
2009,05,29,13,34,24.20
2009,05,29,13,35,24.20
2009,05,29,13,36,24.20
2009,05,29,13,37,24.30
2009,05,29,13,38,24.30
2009,05,29,13,39,24.30
2009,05,29,13,40,24.30
2009,05,29,13,41,24.30
2009,05,29,13,42,24.30
2009,05,29,13,43,24.30
2009,05,29,13,44,24.30
2009,05,29,13,45,24.30
2009,05,29,13,46,24.40
2009,05,29,13,47,24.30
2009,05,29,13,48,24.30
2009,05,29,13,49,24.30
2009,05,29,13,50,24.20
2009,05,29,13,51,24.20
2009,05,29,13,52,24.20
2009,05,29,13,53,24.10
2009,05,29,13,54,24.10
2009,05,29,13,55,24.10
2009,05,29,13,56,24.20
2009,05,29,13,57,24.30
2009,05,29,13,58,24.30
2009,05,29,13,59,24.40
2009,05,29,14,00,24.50
2009,05,29,14,01,24.60
2009,05,29,14,02,24.70
2009,05,29,14,03,24.80
2009,05,29,14,04,24.80
2009,05,29,14,05,24.90
2009,05,29,14,06,25.00
2009,05,29,14,07,25.10
2009,05,29,14,08,25.10
2009,05,29,14,09,25.10
2009,05,29,14,10,25.10
2009,05,29,14,11,25.10
2009,05,29,14,12,25.10
2009,05,29,14,13,25.20
2009,05,29,14,14,25.30
2009,05,29,14,15,25.30
2009,05,29,14,16,25.40
2009,05,29,14,17,25.40
2009,05,29,14,18,25.40
2009,05,29,14,19,25.40
2009,05,29,14,20,25.30
2009,05,29,14,21,25.30
2009,05,29,14,22,25.20
2009,05,29,14,23,25.10
2009,05,29,14,24,25.10
2009,05,29,14,25,25.00
2009,05,29,14,26,25.00
2009,05,29,14,27,24.90
2009,05,29,14,28,24.70
2009,05,29,14,29,24.70
2009,05,29,14,30,24.60
2009,05,29,14,31,24.70
2009,05,29,14,32,24.80
2009,05,29,14,33,24.80
2009,05,29,14,34,24.90
2009,05,29,14,35,24.90
2009,05,29,14,36,24.90
2009,05,29,14,37,25.00
2009,05,29,14,38,25.10
2009,05,29,14,39,25.20
2009,05,29,14,40,25.30
2009,05,29,14,41,25.30
2009,05,29,14,42,25.40
2009,05,29,14,43,25.50
2009,05,29,14,44,25.50
2009,05,29,14,45,25.60
2009,05,29,14,46,25.70
2009,05,29,14,47,25.70
2009,05,29,14,48,25.80
2009,05,29,14,49,25.90
2009,05,29,14,50,25.90
2009,05,29,14,51,25.90
2009,05,29,14,52,25.90
2009,05,29,14,53,25.80
2009,05,29,14,54,25.80
2009,05,29,14,55,25.80
2009,05,29,14,56,25.80
2009,05,29,14,57,25.70
2009,05,29,14,58,25.70
2009,05,29,14,59,25.80
2009,05,29,15,00,25.90
2009,05,29,15,01,25.90
2009,05,29,15,02,25.90
2009,05,29,15,03,25.80
2009,05,29,15,04,25.80
2009,05,29,15,05,25.80
2009,05,29,15,06,25.70
2009,05,29,15,07,25.70
2009,05,29,15,08,25.60
2009,05,29,15,09,25.60
2009,05,29,15,10,25.50
2009,05,29,15,11,25.40
2009,05,29,15,12,25.40
2009,05,29,15,13,25.40
2009,05,29,15,14,25.50
2009,05,29,15,15,25.50
2009,05,29,15,16,25.60
2009,05,29,15,17,25.60
2009,05,29,15,18,25.50
2009,05,29,15,19,25.50
2009,05,29,15,20,25.40
2009,05,29,15,21,25.40
2009,05,29,15,22,25.30
2009,05,29,15,23,25.30
2009,05,29,15,24,25.30
2009,05,29,15,25,25.20
2009,05,29,15,26,25.20
2009,05,29,15,27,25.10
2009,05,29,15,28,25.20
2009,05,29,15,29,25.20
2009,05,29,15,30,25.30
2009,05,29,15,31,25.30
2009,05,29,15,32,25.20
2009,05,29,15,33,25.20
2009,05,29,15,34,25.20
2009,05,29,15,35,25.10
2009,05,29,15,36,25.20
2009,05,29,15,37,25.20
2009,05,29,15,38,25.30
2009,05,29,15,39,25.30
2009,05,29,15,40,25.40
2009,05,29,15,41,25.40
2009,05,29,15,42,25.60
2009,05,29,15,43,25.60
2009,05,29,15,44,25.70
2009,05,29,15,45,25.70
2009,05,29,15,46,25.80
2009,05,29,15,47,25.80
2009,05,29,15,48,25.90
2009,05,29,15,49,25.90
2009,05,29,15,50,25.80
2009,05,29,15,51,25.80
2009,05,29,15,52,25.70
2009,05,29,15,53,25.70
2009,05,29,15,54,25.70
2009,05,29,15,55,25.80
2009,05,29,15,56,25.80
2009,05,29,15,57,25.80
2009,05,29,15,58,25.80
2009,05,29,15,59,25.80
2009,05,29,16,00,25.80
2009,05,29,16,01,25.90
2009,05,29,16,02,25.90
2009,05,29,16,03,25.90
2009,05,29,16,04,25.90
2009,05,29,16,05,25.90
2009,05,29,16,06,25.90
2009,05,29,16,07,25.90
2009,05,29,16,08,25.90
2009,05,29,16,09,25.90
2009,05,29,16,10,25.90
2009,05,29,16,11,25.90
2009,05,29,16,12,25.90
2009,05,29,16,13,25.90
2009,05,29,16,14,25.90
2009,05,29,16,15,26.00
2009,05,29,16,16,26.10
2009,05,29,16,17,26.10
2009,05,29,16,18,26.10
2009,05,29,16,19,26.10
2009,05,29,16,20,26.20
2009,05,29,16,21,26.20
2009,05,29,16,22,26.20
2009,05,29,16,23,26.20
2009,05,29,16,24,26.20
2009,05,29,16,25,26.20
2009,05,29,16,26,26.10
2009,05,29,16,27,25.90
2009,05,29,16,28,25.70
2009,05,29,16,29,25.40
2009,05,29,16,30,25.10
2009,05,29,16,31,24.80
2009,05,29,16,32,24.60
2009,05,29,16,33,24.40
2009,05,29,16,34,24.20
2009,05,29,16,35,24.00
2009,05,29,16,36,23.80
2009,05,29,16,37,23.70
2009,05,29,16,38,23.70
2009,05,29,16,39,23.70
2009,05,29,16,40,23.60
2009,05,29,16,41,23.60
2009,05,29,16,42,23.60
2009,05,29,16,43,23.60
2009,05,29,16,44,23.60
2009,05,29,16,45,23.60
2009,05,29,16,46,23.70
2009,05,29,16,47,23.70
2009,05,29,16,48,23.80
2009,05,29,16,49,23.80
2009,05,29,16,50,23.90
2009,05,29,16,51,23.90
2009,05,29,16,52,23.90
2009,05,29,16,53,24.00
2009,05,29,16,54,24.10
2009,05,29,16,55,24.10
2009,05,29,16,56,24.20
2009,05,29,16,57,24.30
2009,05,29,16,58,24.30
2009,05,29,16,59,24.30
2009,05,29,17,00,24.20
2009,05,29,17,01,24.10
2009,05,29,17,02,24.10
2009,05,29,17,03,24.10
2009,05,29,17,04,24.20
2009,05,29,17,05,24.20
2009,05,29,17,06,24.20
2009,05,29,17,07,24.20
2009,05,29,17,08,24.30
2009,05,29,17,09,24.20
2009,05,29,17,10,24.20
2009,05,29,17,11,24.20
2009,05,29,17,12,24.20
2009,05,29,17,13,24.10
2009,05,29,17,14,24.10
2009,05,29,17,15,24.00
2009,05,29,17,16,24.00
2009,05,29,17,17,23.90
2009,05,29,17,18,23.90
2009,05,29,17,19,23.90